Simultaneous Nadir Overpasses (SNOs) Predictions

Prediction of SNOs between GOES-16 and TERRA Satellite Orbit:

Table of predicted SNOs for the next 14.0 days since TLE Epoch: 2/2/2019
Index Date Time (GOES-16) GOES-16 Lat,Lon TERRA Lat,Lon Distance(km) Time Diff (sec)
1 02/02/2019 03:45:27 -0.00, -75.18 -0.79, -78.96 429.09 80
2 02/03/2019 15:14:31 0.00, -75.18 -0.91, -70.80 497.81 80
3 02/04/2019 03:33:16 -0.00, -75.17 -0.17, -76.00 93.94 80
4 02/06/2019 03:23:45 -0.01, -75.17 0.43, -73.04 241.76 80
5 02/06/2019 15:42:21 0.01, -75.18 0.65, -78.20 343.52 80
6 02/08/2019 15:30:11 0.01, -75.19 0.03, -75.25 7.33 80
7 02/10/2019 15:20:42 0.01, -75.20 -0.62, -72.31 329.22 80
8 02/11/2019 03:39:27 -0.01, -75.19 -0.47, -77.50 262.22 80
9 02/13/2019 03:29:58 -0.01, -75.21 0.15, -74.56 74.24 80
10 02/15/2019 03:16:40 -0.00, -75.22 0.74, -71.61 410.47 11
11 02/15/2019 15:36:25 0.00, -75.23 0.32, -76.77 174.84 80




NCC Satellite Simultaneous Nadir Overpasses (SNOs) Prediction Service
